Flag for Chile Weather past 2 weeks in Puerto Williams, Chile

Now
23 °F

Passing clouds.


Feels Like: 13 °F
Forecast: N/A
Wind: 9 mph from Northeast

Location: Ushuaia Aerodrome

Current Time: Jul 6, 2015 at 7:52:41 PM

Latest Report: Jul 6, 2015 at 6:00 PM


Visibility: N/A

Pressure: 29.86 "Hg

Humidity: 86%

Dew point: 19 °F

Location of Puerto WilliamsLocation

Historic Weather in Puerto Williams — Graph

°F

Puerto Williams temperature yesterday

Maximum temperature yesterday: 32 °F (at 1:00 PM)
Minimum temperature yesterday: 30 °F (at 1:00 AM)
Average temperature yesterday: 31 °F

Past Weeks' High & Low Weather Summary

 TemperatureHumidityPressure
High54 °F (Jun 25, 2:00 PM)100% (Jun 22, 10:00 AM)29.86 "Hg (Jun 22, 10:00 AM)
Low23 °F (Jul 6, 6:00 PM)37% (Jun 25, 4:00 PM)28.65 "Hg (Jun 27, 7:00 PM)
Average35 °F78%29.46 "Hg
* Reported Jun 21 6:00 PM — Jul 6 6:00 PM, Puerto Williams, Weather by CustomWeather, © 2015

Note: Actual official high and low records may vary slightly from our data, if they occured in-between our weather recording intervals... More about our weather records

Advertising

Puerto Williams weather history for previous 24 hours

 ConditionsComfort  
Time TempWeatherWind HumidityBarometerVisibility
6:00 PM
Mon, Jul 6
23 °FPassing clouds.9 mph86%29.86 "HgN/A
5:00 PM25 °FPassing clouds.9 mph86%29.86 "HgN/A
4:00 PM25 °FPassing clouds.9 mph93%29.86 "HgN/A
3:00 PM25 °FPassing clouds.7 mph93%29.86 "HgN/A
2:00 PM27 °FPassing clouds.6 mph86%29.86 "HgN/A
1:00 PM27 °FPassing clouds.7 mph93%29.86 "HgN/A
12:00 PM25 °FScattered clouds.7 mph93%29.86 "HgN/A
11:00 AM25 °FScattered clouds.8 mph93%29.83 "HgN/A
10:00 AM25 °FPartly sunny.7 mph93%29.83 "HgN/A
9:00 AM25 °FPartly sunny.6 mph93%29.83 "HgN/A
8:00 AM25 °FPassing clouds.7 mph86%29.80 "HgN/A
7:00 AM28 °FPassing clouds.15 mph80%29.80 "HgN/A
6:00 AM28 °FPassing clouds.10 mph80%29.77 "HgN/A
5:00 AM28 °FPassing clouds.14 mph86%29.77 "HgN/A
4:00 AM28 °FPassing clouds.12 mph86%29.77 "HgN/A
2:00 AM28 °FScattered showers. Mostly cloudy.13 mph86%29.74 "HgN/A
1:00 AM28 °FScattered showers. Mostly cloudy.14 mph86%29.74 "HgN/A
12:00 AM30 °FLight snow. Overcast.25 mph80%29.71 "HgN/A
11:00 PM
Sun, Jul 5
30 °FLight snow. Overcast.21 mph80%29.71 "Hg3 mi
10:00 PM30 °FLight snow. Overcast.23 mph80%29.68 "Hg3 mi
9:00 PM30 °FLight snow. Mostly cloudy.21 mph80%29.65 "Hg3 mi
8:00 PM30 °FLight snow. Overcast.24 mph100%29.65 "Hg3 mi
7:00 PM30 °FLight snow. Overcast.24 mph100%29.62 "Hg3 mi
Weather by CustomWeather, © 2015

See weather overviewHow to use our weather pages